STARLINK-1142, 45093

Orbit data source: Space-Track

STARLINK-1142, 45093 is a payload satellite owned by SpaceX/Seattle (US) in LEO that was launched on Wed, 29 Jan 2020 UTC via an FALCON 9 launch vehicle from the Air Force Eastern Test Range (AFETR). Payloads include a variety of satellites, spacecraft, and rockets equipped with specific instruments for various scientific and technological missions. These include communications satellites like Starlink; space stations such as the ISS; scientific satellites like the Hubble; Earth observation satellites from companies like Planet Labs, Umbra, and HawkEye 360; GPS; miniature CubeSats for education and research; and military/defense satellites.

Loading next visibility...
STARLINK-1142 details
Identifier
45093, 2020-006BB
Orbit
LEO
Last TLE update18 hours ago
Origin
Flag of USSpaceX/Seattle (US)
ManufacturerSpaceX/Seattle
MissionOperational Commercial Communications
Bus & MotorSTARLINK, Unknown motor
Mass260 kg wet, ~248 kg dry
Launch date (UTC)
2020-01-29 (5 years ago)
Launch vehicle
FALCON 9
Launch site
Air Force Eastern Test Range (AFETR)
Object type
Payload
Rocket body
Debris
Shape & HBRBox + 1 Pan, 8.86 m
Radar Cross Section13.562 m², Large (>1 m²)

Expand to show TLE details & history

TLE from 18 hours ago
0 STARLINK-1142
1 45093U 20006BB  24339.66505100  .00034548  00000-0  18298-2 0  9997
2 45093  53.0458 148.1663 0004098 142.4193 217.7087 15.15114238267730
Epoch: 2024-12-04T15:57Z
Definitive object data (Epoch: 2024-12-04T15:57:40.406Z)
Latitude0.00001°
Longitude-165.209°
Altitude523.75 km
Speed7.601 km/s
True Right ascension09h 52m 39s
True Declination0° 00' 00"
Sunlit
Object was in daylight at TLE epoch
Visualization TLE readout
Latitude24.87826°
Longitude-148.23818°
Altitude522.536 km
Speed7.605 km/s
Apparent Right ascension14h 19m 32s
Apparent Declination-13° 01' 52"
Sunlit
Object is in daylight
Visualization observer readout
Local Sidereal Time07:29:06
Azimuth92.198° ESE
Elevation-17.926°
Doppler factor1
Orbital elements
Apogee altitude523.732 km
Perigee altitude518.078 km
Semi-major axis6,899.042 km
Eccentricity0.0004098
Inclination53.0458°
RAAN148.1663°
Arg. of periapsis142.4193°
True anomaly217.67999°
Mean anomaly217.7087°
Eccentric anomaly217.69434°
Mean motion3.78756 °/min
BSTAR0.0018298
Orbital period95.05 mins
Loading maneuver chart data...
Loading historical data...
Loading historical data...
Loading historical data...
Loading historical data...
Loading historical data...
Loading historical data...
Loading historical data...

STARLINK-1142 Visibility forecast

Observer location: undefined°, undefined

Span
Click to sort rows by Start time (UTC) header in descending order
Start Az.
Max El. time (UTC)
Max El. Az.
Max El.
End time (UTC)
End Az.
5 mins2024-12-05 14:19:52.369Z239.571° WSW2024-12-05 14:21:52.369Z311.083° NW43.998°2024-12-05 14:24:52.369Z45.787° ENE
4 mins2024-12-05 15:59:52.369Z311.44° NW2024-12-05 16:01:52.369Z349.859° N17.269°2024-12-05 16:03:52.369Z22.163° NNE
4 mins2024-12-05 19:19:52.369Z345.939° N2024-12-05 19:21:52.369Z25.86° NE19.989°2024-12-05 19:23:52.369Z63.68° ENE
6 mins2024-12-05 20:58:52.369Z305.723° NW2024-12-05 21:00:52.369Z263.239° W44.249°2024-12-05 21:04:52.369Z134.929° SE
|